[[{"header":{"parameterUnit":"m.s-1","parameterCategory":1,"la1":30.2991,"la2":30.254,"lo1":-89.0895,"lo2":-89.0444,"dy":0.0017,"dx":0.0017,"nx":28,"ny":28,"refTime":"2024-03-02T03:00:00:Z","depth":0,"parameterNumber":2,"parameterNumberName":"U-component_of_WINDS"},"data":[0,0,0,0,0,0,0,0,0,0,0,0,0,0,0,0,0,0,0,0,0,0,0,0,0,0,0,0,0,0,0,0,0,0,0,0,0,0,0,0,0,0,0,0,0,0,0,0,0,0,0,0,0,0,0,0,0,0,-1.8159,-1.8159,0,-1.8153,-1.8153,-1.8153,-1.8112,-1.8111,-1.811,-1.8109,-1.8105,-1.8106,-1.8107,0,0,0,0,0,0,0,0,0,0,0,0,0,-1.8141,-1.8141,-1.8159,-1.8159,-1.8159,-1.8153,-1.8153,-1.8153,-1.8112,-1.8111,-1.8109,-1.8108,-1.8105,-1.8106,-1.8107,0,0,0,0,0,0,0,0,0,0,0,0,0,-1.8143,-1.8141,-1.8159,-1.8138,-1.8136,-1.8153,-1.8153,-1.8153,-1.8112,-1.8111,-1.8109,-1.8108,-1.8105,-1.8106,-1.8107,-1.8145,0,0,-1.8111,-1.8112,0,0,0,0,0,0,0,0,-1.8143,-1.8144,-1.8141,-1.814,-1.8137,-1.8131,-1.8145,-1.815,-1.8113,-1.8121,-1.8109,-1.8107,-1.8115,-1.8116,-1.8118,-1.8145,-1.8145,-1.8111,-1.8112,-1.8112,-1.8113,0,0,0,0,0,0,0,-1.8143,-1.8144,-1.8157,-1.8141,-1.8139,-1.813,-1.8129,-1.8146,-1.8127,-1.812,-1.8117,-1.8117,-1.8114,-1.8117,-1.8118,-1.8145,-1.8111,-1.8112,-1.8113,-1.8114,-1.8204,-1.8206,0,0,0,0,0,0,-1.8145,-1.8144,-1.8157,-1.8157,-1.8136,-1.8132,-1.813,-1.8135,-1.8127,-1.8124,-1.8118,-1.8115,-1.8115,-1.8116,-1.8117,-1.8162,-1.8112,-1.8114,-1.8114,-1.8203,-1.8205,-1.8207,0,0,0,0,0,0,-1.8145,-1.8147,-1.8157,-1.815,-1.815,-1.8134,-1.8139,-1.8136,-1.8138,-1.8125,-1.8122,-1.8124,-1.8114,-1.8115,-1.8139,-1.8161,-1.8114,-1.8115,-1.8201,-1.8203,-1.8206,-1.825,0,0,0,0,0,0,-1.8145,-1.8147,-1.816,-1.815,-1.8151,-1.8178,-1.8141,-1.8137,-1.814,-1.8136,-1.813,-1.8127,-1.8113,-1.8137,-1.814,-1.8162,-1.8116,-1.8199,-1.8202,-1.8205,-1.8247,-1.8254,-1.826,0,0,0,0,0,-1.8144,-1.8173,-1.8161,-1.8163,-1.8167,-1.8179,-1.8179,-1.8161,-1.8142,-1.8156,-1.8148,-1.8127,-1.8158,-1.814,-1.8143,-1.8165,-1.8197,-1.8201,-1.8205,-1.8244,-1.8253,-1.826,0,0,0,0,0,0,-1.8187,-1.8171,-1.8157,-1.8184,-1.8183,-1.8172,-1.8188,-1.8171,-1.8176,-1.8172,-1.8151,-1.815,-1.8177,-1.8174,-1.8153,-1.8202,-1.8174,-1.8179,-1.8203,-1.8212,-1.8218,-1.8218,-1.8117,0,0,0,0,0,-1.8199,-1.8209,-1.8196,-1.8221,-1.8221,-1.8205,-1.821,-1.8196,-1.8195,-1.8194,-1.8188,-1.8188,-1.8198,-1.8205,-1.8213,-1.8247,-1.8246,-1.8264,-1.8271,-1.8276,-1.828,-1.8299,-1.8308,-1.8219,-1.8219,-1.8219,0,0,-1.8225,-1.8218,-1.8226,-1.8229,-1.8227,-1.8239,-1.8205,-1.8219,-1.8228,-1.8197,-1.8217,-1.8213,-1.8213,-1.8241,-1.8254,-1.8239,-1.8305,-1.8281,-1.8286,-1.8287,-1.8304,-1.8312,-1.832,-1.8221,-1.8221,-1.822,0,0,-1.8278,-1.8273,-1.8294,-1.8292,-1.8289,-1.8278,-1.8284,-1.8275,-1.8271,-1.8292,-1.8269,-1.8281,-1.8298,-1.8298,-1.8301,-1.8357,-1.8339,-1.836,-1.8395,-1.8414,-1.8421,-1.8427,-1.8447,-1.8455,-1.8365,-1.8365,-1.8365,0,-1.8311,-1.8326,-1.8307,-1.8322,-1.8325,-1.8297,-1.8319,-1.8319,-1.8319,-1.8322,-1.8306,-1.8328,-1.8325,-1.8354,-1.8368,-1.8371,-1.8377,-1.836,-1.8421,-1.8427,-1.8433,-1.8452,-1.846,-1.8367,-1.8367,-1.8367,-1.8367,0,-1.8367,-1.8379,-1.8396,-1.8396,-1.8401,-1.842,-1.8404,-1.8412,-1.8399,-1.8391,-1.8414,-1.841,-1.8418,-1.8424,-1.8411,-1.8452,-1.8443,-1.8425,-1.8396,-1.8444,-1.8462,-1.8469,-1.8371,-1.837,-1.8369,-1.8369,0,0,-1.8445,-1.8435,-1.8441,-1.8441,-1.8437,-1.8446,-1.8465,-1.8471,-1.8479,-1.8481,-1.8496,-1.8513,-1.8496,-1.8499,-1.8487,-1.8503,-1.8549,-1.8483,-1.8482,-1.8495,-1.8594,-1.8608,-1.8616,-1.8537,-1.8539,-1.854,-1.8594,0,-1.8496,-1.8525,-1.8508,-1.854,-1.8552,-1.8526,-1.8543,-1.8543,-1.8536,-1.8546,-1.854,-1.8552,-1.8529,-1.853,-1.8546,-1.854,-1.8568,-1.8536,-1.8553,-1.8553,-1.8553,-1.8626,-1.8639,-1.8691,-1.8601,-1.8602,-1.8603,0,-1.8558,-1.8562,-1.8595,-1.8589,-1.8593,-1.8608,-1.8613,-1.8623,-1.8623,-1.8618,-1.8622,-1.8607,-1.8626,-1.8599,-1.8626,-1.8605,-1.8611,-1.861,-1.8611,-1.8611,-1.8581,-1.8628,-1.8707,-1.8715,-1.8614,-1.8613,-1.8612,0,-1.8612,-1.8625,-1.8647,-1.8648,-1.8641,-1.8653,-1.8651,-1.8649,-1.8655,-1.8661,-1.8665,-1.8673,-1.8678,-1.8686,-1.8674,-1.8655,-1.8703,-1.8675,-1.87,-1.8701,-1.8711,-1.871,-1.8792,-1.8716,-1.8716,-1.8716,-1.8715,0,-1.8669,-1.8691,-1.8671,-1.8684,-1.8708,-1.869,-1.8714,-1.871,-1.871,-1.8723,-1.8703,-1.8716,-1.87,-1.8712,-1.8703,-1.8728,-1.873,-1.8727,-1.8725,-1.8729,-1.8729,-1.8732,-1.8728,-1.8718,-1.8717,-1.8717,-1.8716,0,-1.8732,-1.872,-1.8742,-1.8734,-1.8733,-1.8751,-1.8745,-1.8758,-1.8751,-1.8769,-1.8772,-1.8761,-1.8775,-1.8764,-1.8778,-1.8772,-1.8805,-1.8797,-1.8804,-1.8802,-1.8828,-1.8826,-1.8914,-1.8925,-1.8843,-1.8844,-1.8844,0,-1.877,-1.8785,-1.878,-1.8786,-1.8786,-1.8797,-1.8803,-1.8787,-1.8794,-1.8797,-1.881,-1.8822,-1.883,-1.8854,-1.8848,-1.8859,-1.8852,-1.8882,-1.8853,-1.8857,-1.8852,-1.8851,-1.8853,-1.8888,-1.8889,-1.8889,-1.889,0,-1.8837,-1.8831,-1.8838,-1.8845,-1.8852,-1.8857,-1.886,-1.8867,-1.8851,-1.8861,-1.8874,-1.8881,-1.8895,-1.8907,-1.8917,-1.8917,-1.8902,-1.8899,-1.8906,-1.891,-1.8913,-1.8912,-1.882,-1.8897,-1.8896,-1.8896,-1.8896,-1.8895,-1.8888,-1.8901,-1.89,-1.891,-1.891,-1.8914,-1.8926,-1.8921,-1.8931,-1.894,-1.8932,-1.8948,-1.895,-1.8961,-1.8963,-1.8977,-1.8965,-1.8974,-1.8977,-1.8979,-1.8983,-1.8912,-1.8979,-1.8979,-1.8979,-1.8979,-1.8978,0,-1.8955,-1.8953,-1.8962,-1.8967,-1.8976,-1.896,-1.8963,-1.8972,-1.8986,-1.8989,-1.8998,-1.9014,-1.9027,-1.9023,-1.9035,-1.9047,-1.904,-1.9051,-1.9049,-1.905,-1.8993,-1.8986,-1.9056,-1.9056,-1.9056,-1.9056,-1.9056,-1.9056,-1.899,-1.9011,-1.9005,-1.9028,-1.9026,-1.904,-1.9044,-1.9048,-1.905,-1.9069,-1.9079,-1.9076,-1.9077,-1.9089,-1.9101,-1.91,-1.9105,-1.9118,-1.9114,-1.9061,-1.9054,-1.9046,-1.904,-1.9119,-1.9119,-1.917,-1.917,-1.9171]},{"header":{"parameterUnit":"m.s-1","parameterCategory":1,"la1":30.2991,"la2":30.254,"lo1":-89.0895,"lo2":-89.0444,"dy":0.0017,"dx":0.0017,"nx":28,"ny":28,"refTime":"2024-03-02T03:00:00:Z","depth":0,"parameterNumber":3,"parameterNumberName":"V-component_of_WINDS"},"data":[0,0,0,0,0,0,0,0,0,0,0,0,0,0,0,0,0,0,0,0,0,0,0,0,0,0,0,0,0,0,0,0,0,0,0,0,0,0,0,0,0,0,0,0,0,0,0,0,0,0,0,0,0,0,0,0,0,0,0.8439,0.8438,0,0.8377,0.8376,0.8376,0.8358,0.8358,0.8359,0.8359,0.8293,0.8291,0.8289,0,0,0,0,0,0,0,0,0,0,0,0,0,0.8539,0.8537,0.8439,0.8438,0.8437,0.8377,0.8376,0.8376,0.8358,0.8359,0.8359,0.8359,0.8294,0.8291,0.8289,0,0,0,0,0,0,0,0,0,0,0,0,0,0.8488,0.8536,0.8439,0.8421,0.8419,0.8377,0.8376,0.8375,0.8358,0.8359,0.8359,0.836,0.8295,0.8292,0.8288,0.8259,0,0,0.8279,0.8278,0,0,0,0,0,0,0,0,0.8491,0.8484,0.8425,0.8422,0.842,0.8376,0.8388,0.8336,0.8358,0.8381,0.8359,0.836,0.832,0.8315,0.8302,0.8256,0.8253,0.8279,0.8277,0.8275,0.8275,0,0,0,0,0,0,0,0.8494,0.8487,0.8414,0.8424,0.8421,0.8416,0.8409,0.8378,0.8348,0.8379,0.8378,0.8371,0.8319,0.8305,0.83,0.8252,0.8279,0.8276,0.8274,0.8273,0.818,0.8179,0,0,0,0,0,0,0.8501,0.849,0.8416,0.8412,0.8457,0.8414,0.8406,0.8389,0.8349,0.8343,0.837,0.837,0.831,0.8304,0.8298,0.8261,0.8275,0.8273,0.8271,0.818,0.818,0.8179,0,0,0,0,0,0,0.8504,0.8495,0.8419,0.8451,0.8441,0.8411,0.8393,0.8388,0.8374,0.8342,0.8337,0.8362,0.831,0.8302,0.8269,0.8259,0.8271,0.8268,0.8181,0.818,0.8179,0.8187,0,0,0,0,0,0,0.8506,0.8496,0.8485,0.8451,0.8439,0.8391,0.8392,0.8386,0.8369,0.8368,0.8333,0.8327,0.831,0.8274,0.8266,0.8255,0.8266,0.8182,0.8181,0.818,0.8188,0.8187,0.8186,0,0,0,0,0,0.851,0.8488,0.8484,0.8475,0.8425,0.8391,0.8384,0.8366,0.8369,0.8357,0.8337,0.8328,0.8262,0.8271,0.8262,0.8249,0.8182,0.8181,0.818,0.8188,0.8187,0.8186,0,0,0,0,0,0,0.852,0.8483,0.8478,0.8445,0.8421,0.8388,0.8372,0.8365,0.8339,0.8339,0.8317,0.8309,0.8277,0.826,0.8271,0.8219,0.8222,0.8219,0.8231,0.823,0.8229,0.8233,0.8263,0,0,0,0,0,0.8518,0.8495,0.8464,0.8437,0.8426,0.8402,0.8386,0.8374,0.8348,0.8338,0.8315,0.829,0.8263,0.8246,0.8219,0.8186,0.8178,0.8173,0.8172,0.8171,0.8168,0.815,0.8148,0.8175,0.8175,0.8175,0,0,0.8514,0.8492,0.8478,0.8439,0.8419,0.8395,0.8393,0.8367,0.8349,0.8334,0.8301,0.8284,0.8254,0.8221,0.8205,0.8206,0.816,0.817,0.8169,0.8167,0.8149,0.8146,0.8144,0.8174,0.8174,0.8174,0,0,0.8495,0.8475,0.8452,0.8433,0.8404,0.8388,0.8382,0.835,0.8339,0.8306,0.8295,0.8273,0.8227,0.8207,0.819,0.8166,0.8157,0.8158,0.8152,0.8135,0.8132,0.813,0.8122,0.8119,0.8155,0.8155,0.8155,0,0.8493,0.8457,0.844,0.8415,0.8398,0.8386,0.8362,0.8344,0.8307,0.8295,0.8297,0.8241,0.8219,0.8182,0.8176,0.8163,0.8156,0.8161,0.8134,0.8132,0.813,0.8121,0.8118,0.8155,0.8155,0.8155,0.8155,0,0.8456,0.8431,0.8416,0.8382,0.8364,0.834,0.8319,0.8302,0.8293,0.8277,0.8245,0.8219,0.8188,0.8179,0.8168,0.814,0.8141,0.8139,0.8141,0.8128,0.8119,0.8116,0.8156,0.8156,0.8155,0.8155,0,0,0.8438,0.8398,0.8393,0.8378,0.8346,0.8326,0.8302,0.8273,0.8259,0.8235,0.8213,0.8176,0.8175,0.8156,0.8144,0.8129,0.8111,0.8128,0.8127,0.8126,0.8079,0.808,0.8077,0.8106,0.8106,0.8105,0.8081,0,0.8415,0.8371,0.8356,0.832,0.8297,0.8286,0.8264,0.8242,0.8227,0.8205,0.8188,0.8163,0.8162,0.8151,0.8136,0.8117,0.8101,0.8118,0.8086,0.8085,0.8093,0.8072,0.8073,0.8052,0.8078,0.8077,0.8077,0,0.838,0.8357,0.8319,0.8292,0.8281,0.8262,0.8235,0.8215,0.819,0.818,0.8161,0.815,0.8124,0.8129,0.8093,0.8105,0.8091,0.8079,0.8078,0.8073,0.8079,0.8066,0.8044,0.8041,0.8071,0.8072,0.8072,0,0.8371,0.8331,0.8303,0.8291,0.8258,0.8245,0.8231,0.8207,0.8191,0.8167,0.8156,0.813,0.8115,0.8094,0.8077,0.8082,0.8042,0.8045,0.8033,0.8033,0.8023,0.8024,0.7998,0.8016,0.8016,0.8016,0.8016,0,0.8345,0.8322,0.8298,0.8281,0.8255,0.8239,0.8214,0.8198,0.8178,0.8157,0.8146,0.8127,0.8105,0.8083,0.8069,0.8042,0.8035,0.8026,0.8022,0.8026,0.8028,0.8016,0.8017,0.8015,0.8015,0.8016,0.8016,0,0.8329,0.8313,0.8282,0.8255,0.8247,0.8229,0.8206,0.8188,0.8174,0.8148,0.8141,0.8118,0.8092,0.8073,0.8039,0.803,0.8,0.7996,0.8008,0.8006,0.7995,0.7996,0.796,0.7954,0.7976,0.7976,0.7976,0,0.8314,0.8296,0.8267,0.8254,0.824,0.8217,0.8202,0.8186,0.8169,0.8141,0.8128,0.8101,0.8079,0.8037,0.8017,0.7991,0.7987,0.7976,0.7983,0.7988,0.7986,0.7987,0.7985,0.7975,0.7975,0.7974,0.7974,0,0.8287,0.828,0.8259,0.8235,0.8217,0.8197,0.8176,0.8166,0.8146,0.8128,0.8102,0.8085,0.8052,0.8025,0.7998,0.7983,0.7975,0.7973,0.7968,0.7972,0.7979,0.7975,0.8005,0.7973,0.7973,0.7973,0.7973,0.7974,0.827,0.8255,0.8233,0.8209,0.8193,0.8175,0.8158,0.8142,0.8121,0.8093,0.8085,0.8058,0.8035,0.7997,0.7982,0.796,0.7961,0.7954,0.7953,0.7951,0.7951,0.7984,0.7955,0.7955,0.7955,0.7955,0.7955,0,0.8243,0.8229,0.8208,0.8181,0.8163,0.816,0.8137,0.8122,0.8099,0.8079,0.8058,0.8028,0.8004,0.7983,0.7957,0.7944,0.794,0.7937,0.7937,0.7934,0.7952,0.7959,0.7941,0.7941,0.7941,0.7941,0.7941,0.7941,0.8227,0.82,0.8191,0.8157,0.8143,0.8117,0.8105,0.8088,0.8072,0.804,0.802,0.8007,0.7987,0.796,0.7937,0.7931,0.7922,0.7921,0.7914,0.7931,0.7933,0.7934,0.794,0.7919,0.7919,0.7898,0.7897,0.7897]}]]